Flag for U.S.A. Weather past 2 weeks in Winston-Salem, North Carolina, U.S.A.

Now
41 °F

Overcast.


Feels Like: 41 °F
Forecast: 33 / 51 °F
Wind: No wind

Location: Smith Reynolds Airport

Current Time: Dec 19, 2014 at 2:01:05 AM

Latest Report: Dec 19, 2014 at 12:54 AM


Visibility: 10 mi

Pressure: 30.11 "Hg

Humidity: 55%

Dew point: 26 °F

Location of Winston-SalemLocation

Historic Weather in Winston-Salem — Graph

°F

Winston-Salem temperature yesterday

Maximum temperature yesterday: 47 °F (at 2:54 PM)
Minimum temperature yesterday: 37 °F (at 4:54 AM)
Average temperature yesterday: 42 °F

Past Weeks' High & Low Weather Summary

 TemperatureHumidityPressure
High61 °F (Dec 13, 2:54 PM)97% (Dec 6, 6:54 PM)30.49 "Hg (Dec 6, 6:54 PM)
Low28 °F (Dec 11, 6:54 AM)16% (Dec 12, 3:54 PM)29.88 "Hg (Dec 16, 2:54 PM)
Average44 °F58%30.16 "Hg
* Reported Dec 4 12:54 AM — Dec 19 12:54 AM, Winston-Salem, Weather by CustomWeather, © 2014

Note: Actual official high and low records may vary slightly from our data, if they occured in-between our weather recording intervals... More about our weather records

Advertising

Winston-Salem weather history for previous 24 hours

 ConditionsComfort  
Time TempWeatherWind HumidityBarometerVisibility
12:54 AM
Dec 19
41 °FOvercast.No wind55%30.11 "Hg10 mi
11:54 PM
Dec 18
41 °FOvercast.No wind55%30.11 "Hg10 mi
10:54 PM42 °FPassing clouds.No wind47%30.11 "Hg10 mi
9:54 PM39 °FPassing clouds.No wind55%30.10 "Hg10 mi
8:54 PM42 °FOvercast.No wind51%30.11 "Hg10 mi
7:54 PM45 °FOvercast.No wind40%30.11 "Hg10 mi
6:54 PM45 °FOvercast.3 mph42%30.11 "Hg10 mi
5:54 PM46 °FOvercast.No wind34%30.10 "Hg10 mi
4:54 PM46 °FOvercast.3 mph33%30.10 "Hg10 mi
3:54 PM47 °FOvercast.6 mph32%30.09 "Hg10 mi
2:54 PM47 °FOvercast.No wind30%30.08 "Hg10 mi
1:54 PM46 °FOvercast.6 mph33%30.11 "Hg10 mi
12:54 PM44 °FOvercast.5 mph38%30.13 "Hg10 mi
11:54 AM43 °FOvercast.6 mph40%30.16 "Hg10 mi
10:54 AM42 °FOvercast.8 mph43%30.19 "Hg10 mi
9:54 AM41 °FOvercast.14 mph45%30.17 "Hg10 mi
8:54 AM39 °FPartly sunny.7 mph53%30.18 "Hg10 mi
7:54 AM37 °FSunny.7 mph54%30.18 "Hg10 mi
6:54 AM37 °FClear.10 mph54%30.15 "Hg10 mi
5:54 AM37 °FClear.10 mph57%30.14 "Hg10 mi
4:54 AM37 °FClear.10 mph60%30.12 "Hg10 mi
3:54 AM38 °FClear.8 mph60%30.11 "Hg10 mi
2:54 AM40 °FClear.7 mph53%30.11 "Hg10 mi
Weather by CustomWeather, © 2014

See weather overviewHow to use our weather pages